Location: Bonaustraße
(48.4603°N, 11.9280°E)
Time: 03:43:47
(UTC+01:00)

Envisat - Pass Details

Date: 29 January 2021
Orbit: 764 x 766 km, 98.1° (Epoch: 05 March)

Event Time Altitude Azimuth Distance (km) Brightness Sun altitude
Rises 17:42:20 0° 188° (S) 3,220 6.6 -6.3°
Reaches altitude 10° 17:44:48 10° 197° (SSW) 2,298 6.0 -6.7°
Maximum altitude 17:49:27 36° 264° (W) 1,198 4.8 -7.4°
Drops below altitude 10° 17:54:09 10° 331° (NNW) 2,314 5.6 -8.2°
Sets 17:56:39 0° 340° (NNW) 3,245 6.3 -8.6°
